"Pseudo-MPEC" for P11dz9X

Created 2021 Feb 28 14:07:07 UT using Find_Orb

Click here for an explanation of pseudo-MPECs

 
 Astrometry: 
     P11dz9X  C2021 02 173QO;Oen7ImHH3g2y;_:rmsE5AstrometryYredacted;!click-xF51
     P11dz9X  C2021 02 17fJ1=SFt^hA`j.hereMV.OLGCD;qiPPk]N1a9)for:?OYmg!5(kCUF51
     P11dz9X  C2021 02 17H+_tS\rnSax],5ew$GkexplanationwPJkr%ZK#/McHGp+?d8ZPgF51

Station data:
(F51) Pan-STARRS 1, Haleakala  (N20.707235 W156.255910)  US/Hawaii.
   Observers N. Primak, A. Schultz, S. Watters, J. Thiel, T. Goggia. Measurer
   PS1 Science Consortium. 1.8-m Ritchey-Chrétien + CCD.

Orbital elements:  P11dz9X
   Perihelion 2020 Dec 5.496329 +/- 90.9046 TT = 11:54:42 (JD 2459188.996329)
Epoch 2021 Feb 17.0 TT = JDT 2459262.5   Earth MOID: 0.0009   AutoNEOCP
M  69.13930905 +/- 86.656553        (J2000 ecliptic)
n   0.94062388 +/- 0.536595         Peri.  258.06136 +/- 75.128632
a   1.03163336 +/- 0.392334         Node   166.71404 +/- 32.457027
e   0.1281362 +/- 0.220874          Incl.    0.30937 +/- 41.976036
P   1.05/382.72d           H 29.9   G  0.15   U 12.3  SR
q 0.89944374 +/- 0.378946    Q 1.16382299 +/- 14.5778
From 3 observations 2021 Feb. 17 (36.9 min); mean residual 0".04
Residuals in arcseconds: 
210217 F51  .03+  .03-    210217 F51  .06-  .06+    210217 F51  .03+  .03-    

Ephemerides (geocentric):
Date (UTC) HH   RA              Dec         delta   r     elong  mag " sig PA
---- -- -- --  -------------   -----------  ------ ------ -----  --- ---- ---
2021 02 28 14  10 01 02.585   +10 59 55.64  .03541 1.0254 168.5 23.4  45d 178
2021 02 28 15  10 01 02.411   +11 00 29.81  .03550 1.0255 168.5 23.4  45d 178
2021 02 28 16  10 01 02.242   +11 01 03.80  .03559 1.0256 168.4 23.4  45d 178
2021 02 28 17  10 01 02.077   +11 01 37.61  .03567 1.0256 168.4 23.4  45d 178
2021 02 28 18  10 01 01.915   +11 02 11.24  .03576 1.0257 168.3 23.5  45d 178
2021 02 28 19  10 01 01.759   +11 02 44.70  .03585 1.0258 168.3 23.5  45d 178
2021 02 28 20  10 01 01.606   +11 03 17.98  .03593 1.0259 168.3 23.5  45d 178
2021 02 28 21  10 01 01.457   +11 03 51.08  .03602 1.0260 168.2 23.5  45d 178
2021 02 28 22  10 01 01.312   +11 04 24.01  .03611 1.0261 168.2 23.5  45d 178
2021 02 28 23  10 01 01.171   +11 04 56.77  .03619 1.0262 168.1 23.5  45d 178
2021 03 01 00  10 01 01.034   +11 05 29.35  .03628 1.0263 168.1 23.5  46d 178
2021 03 01 01  10 01 00.902   +11 06 01.77  .03637 1.0264 168.0 23.5  46d 178
2021 03 01 02  10 01 00.773   +11 06 34.01  .03646 1.0265 168.0 23.5  46d 178
2021 03 01 03  10 01 00.648   +11 07 06.09  .03654 1.0265 167.9 23.5  46d 178
2021 03 01 04  10 01 00.527   +11 07 38.00  .03663 1.0266 167.9 23.5  46d 178
2021 03 01 05  10 01 00.410   +11 08 09.74  .03672 1.0267 167.9 23.5  46d 178
2021 03 01 06  10 01 00.297   +11 08 41.32  .03680 1.0268 167.8 23.5  46d 178
2021 03 01 07  10 01 00.188   +11 09 12.74  .03689 1.0269 167.8 23.5  46d 178
2021 03 01 08  10 01 00.083   +11 09 43.99  .03698 1.0270 167.7 23.6  46d 178
2021 03 01 09  10 00 59.981   +11 10 15.08  .03707 1.0271 167.7 23.6  46d 178
2021 03 01 10  10 00 59.884   +11 10 46.00  .03715 1.0272 167.6 23.6  46d 178
2021 03 01 11  10 00 59.790   +11 11 16.77  .03724 1.0273 167.6 23.6  46d 178
2021 03 01 12  10 00 59.700   +11 11 47.38  .03733 1.0274 167.5 23.6  46d 178
2021 03 01 13  10 00 59.614   +11 12 17.83  .03742 1.0274 167.5 23.6  46d 178
2021 03 01 14  10 00 59.532   +11 12 48.12  .03750 1.0275 167.5 23.6  46d 178
2021 03 01 15  10 00 59.454   +11 13 18.26  .03759 1.0276 167.4 23.6  46d 178
2021 03 01 16  10 00 59.379   +11 13 48.24  .03768 1.0277 167.4 23.6  46d 178
2021 03 01 17  10 00 59.308   +11 14 18.06  .03776 1.0278 167.3 23.6  46d 178
2021 03 01 18  10 00 59.241   +11 14 47.74  .03785 1.0279 167.3 23.6  46d 178
2021 03 01 19  10 00 59.177   +11 15 17.26  .03794 1.0280 167.2 23.6  46d 178
2021 03 01 20  10 00 59.118   +11 15 46.63  .03803 1.0281 167.2 23.6  46d 178
2021 03 01 21  10 00 59.062   +11 16 15.84  .03812 1.0282 167.1 23.6  46d 178
2021 03 01 22  10 00 59.010   +11 16 44.91  .03820 1.0283 167.1 23.6  46d 178
2021 03 01 23  10 00 58.961   +11 17 13.83  .03829 1.0283 167.1 23.7  46d 178
2021 03 02 00  10 00 58.916   +11 17 42.60  .03838 1.0284 167.0 23.7  46d 178
2021 03 02 01  10 00 58.875   +11 18 11.22  .03847 1.0285 167.0 23.7  46d 178
2021 03 02 02  10 00 58.837   +11 18 39.70  .03855 1.0286 166.9 23.7  46d 178
2021 03 02 03  10 00 58.803   +11 19 08.03  .03864 1.0287 166.9 23.7  46d 178
2021 03 02 04  10 00 58.773   +11 19 36.22  .03873 1.0288 166.8 23.7  46d 178
2021 03 02 05  10 00 58.747   +11 20 04.26  .03882 1.0289 166.8 23.7  46d 178
2021 03 02 06  10 00 58.724   +11 20 32.16  .03891 1.0290 166.7 23.7  46d 178
2021 03 02 07  10 00 58.704   +11 20 59.91  .03899 1.0291 166.7 23.7  47d 178
2021 03 02 08  10 00 58.689   +11 21 27.53  .03908 1.0291 166.7 23.7  47d 178
2021 03 02 09  10 00 58.676   +11 21 55.00  .03917 1.0292 166.6 23.7  47d 178
2021 03 02 10  10 00 58.668   +11 22 22.34  .03926 1.0293 166.6 23.7  47d 178
2021 03 02 11  10 00 58.663   +11 22 49.53  .03935 1.0294 166.5 23.7  47d 178
2021 03 02 12  10 00 58.661   +11 23 16.59  .03943 1.0295 166.5 23.7  47d 178
2021 03 02 13  10 00 58.664   +11 23 43.51  .03952 1.0296 166.4 23.7  47d 178